星链-5475 (STARLINK-5475 )

导读 | 豆包AI

STARLINK-5475是美国SpaceX星链(Starlink)星座中的低轨互联网通信卫星,于2023年2月17日成功发射。星链项目旨在通过大规模低轨卫星组网,为全球提供高速宽带互联网服务,重点覆盖偏远、网络基础设施匮乏区域。该卫星作为星链组网的组成单元,运行在近地轨道,延续了星链卫星轻量化设计与星间通信能力,持续推进星座全球覆盖的建设进程,增强系统整体通信容量与服务稳定性,是SpaceX实现全球卫星互联网布局的重要一环。

基本信息
目录编号:
55661
目录名称:
STARLINK-5475
国际标识:
2023-021AK
轨道中心:
EARTH
卫星名称:
星链-5475
卫星全名:
星链-5475 (STARLINK-5475 )
卫星状态:
在轨 (已飞行1168 天)
发射日期:
2023-02-17 UTC
国别 :
美国 (US)
星等 :
--
轨道信息
数据来源 国际轨道数据
星历时间: 2026-04-30T11:52:29+0800
9小时前
查看轨道信息
半长轴: 6950.187km
偏心率: 0.0002827
轨道倾角: 70.001°
近地点辐角 269.074°
升交点赤经 34.713°
平近点角 91.010°
近地点: 570.085km
远地点: 574.015km
周期: 96.107分钟
每日圈数: 14.983321
详细信息
固有亮度:
5
最大亮度:
2.5
卫星平台:
Starlink v1.5
覆盖范围:
全球
运营商:
太空探索技术公司
运营商所在国:
美国
制造商(研发单位):
太空探索技术公司
制造商所在国:
美国
使用方式:
暂无
卫星简介
星链(Starlink)计划是由太空探索技术公司(SpaceX)提出的一个巨型低轨卫星互联网星座项目,计划在2019年至2024年间在太空搭建由约1.2万颗卫星组成的“星链”网络,其中1584颗将部署在地球上空550千米处的近地轨道,并从2020年开始工作。该卫星仍在工作。
2D轨道图
3D轨道图
轨道高度分析图
轨道倾角分析图
轨道综合分析图
查看轨道综合分析图